KK4EQF Weather Reports


time (UTC)temp
F
wind
direction
speed
knots
gust
knots
rain 1hr
in
rain 24hr
in
rain mn
in
humidity
%
barometer
mb
20260504202757 81 254 1.7 8.7 0.00 0.00 0.00 44 1014.0
20260504202656 81 34 1.7 8.7 0.00 0.00 0.00 44 1014.0
20260504202550 81 313 1.7 8.7 0.00 0.00 0.00 45 1014.0
20260504202451 81 241 2.6 8.7 0.00 0.00 0.00 45 1014.0
20260504202251 81 301 2.6 7.8 0.00 0.00 0.00 45 1014.0
20260504202150 81 277 2.6 7.8 0.00 0.00 0.00 45 1014.0
20260504202050 81 305 2.6 7.8 0.00 0.00 0.00 44 1014.0
20260504201950 81 305 2.6 7.8 0.00 0.00 0.00 44 1014.0
20260504201744 81 327 2.6 7.8 0.00 0.00 0.00 44 1014.0
20260504201642 81 244 2.6 7.8 0.00 0.00 0.00 44 1014.0
20260504201543 81 309 2.6 7.8 0.00 0.00 0.00 45 1014.0
20260504201442 81 285 2.6 7.8 0.00 0.00 0.00 45 1013.9
20260504201237 81 286 2.6 7.8 0.00 0.00 0.00 45 1014.0
20260504201136 81 241 2.6 7.8 0.00 0.00 0.00 45 1014.1
20260504201037 81 0 2.6 7.8 0.00 0.00 0.00 45 1014.1
20260504200939 81 341 1.7 7.0 0.00 0.00 0.00 45 1014.1
20260504200732 81 235 2.6 7.0 0.00 0.00 0.00 45 1014.1
20260504200633 81 279 1.7 8.7 0.00 0.00 0.00 45 1014.2
20260504200533 81 302 1.7 8.7 0.00 0.00 0.00 45 1014.2
20260504200433 81 341 1.7 8.7 0.00 0.00 0.00 45 1014.2
20260504200228 81 297 2.6 8.7 0.00 0.00 0.00 45 1014.2
20260504200129 81 275 1.7 8.7 0.00 0.00 0.00 45 1014.3
20260504200026 81 286 1.7 8.7 0.00 0.00 0.00 45 1014.3
20260504195927 81 286 2.6 8.7 0.00 0.00 0.00 45 1014.3
20260504195724 81 246 1.7 8.7 0.00 0.00 0.00 46 1014.3
20260504195622 81 304 1.7 7.0 0.00 0.00 0.00 45 1014.4
20260504195525 81 292 1.7 7.0 0.00 0.00 0.00 45 1014.4
20260504195421 81 259 1.7 7.0 0.00 0.00 0.00 45 1014.4
20260504195212 82 280 1.7 8.7 0.00 0.00 0.00 45 1014.4
20260504195113 82 323 1.7 8.7 0.00 0.00 0.00 45 1014.5
20260504195012 82 284 1.7 8.7 0.00 0.00 0.00 45 1014.4
20260504194912 82 265 1.7 8.7 0.00 0.00 0.00 45 1014.4
20260504194706 82 294 1.7 8.7 0.00 0.00 0.00 45 1014.3
20260504194607 82 267 1.7 8.7 0.00 0.00 0.00 46 1014.4
20260504194506 82 304 2.6 8.7 0.00 0.00 0.00 46 1014.4
20260504194409 82 315 2.6 8.7 0.00 0.00 0.00 46 1014.5
20260504194202 82 277 2.6 7.8 0.00 0.00 0.00 46 1014.5
20260504194100 82 273 2.6 7.8 0.00 0.00 0.00 46 1014.4
20260504194001 83 275 1.7 7.8 0.00 0.00 0.00 46 1014.5
20260504193900 83 324 1.7 7.8 0.00 0.00 0.00 46 1014.5
20260504193655 83 290 1.7 7.0 0.00 0.00 0.00 46 1014.5
20260504193554 83 254 1.7 7.0 0.00 0.00 0.00 46 1014.5
20260504193454 83 283 1.7 7.0 0.00 0.00 0.00 46 1014.5
20260504193355 83 321 1.7 6.1 0.00 0.00 0.00 46 1014.5
20260504193152 83 310 1.7 5.2 0.00 0.00 0.00 46 1014.6
20260504193052 83 288 0.9 3.5 0.00 0.00 0.00 46 1014.7
20260504192954 83 284 1.7 3.5 0.00 0.00 0.00 46 1014.7
20260504192852 84 284 1.7 3.5 0.00 0.00 0.00 47 1014.7
20260504192646 84 283 1.7 3.5 0.00 0.00 0.00 45 1014.7
20260504192546 84 310 1.7 3.5 0.00 0.00 0.00 43 1014.7
20260504192448 84 355 0.9 3.5 0.00 0.00 0.00 46 1014.7
20260504192345 84 259 1.7 3.5 0.00 0.00 0.00 44 1014.7
20260504192137 83 326 1.7 3.5 0.00 0.00 0.00 42 1014.8
20260504192050 83 326 1.7 3.5 0.00 0.00 0.00 41 1014.9
20260504192028 83 328 1.7 3.5 0.00 0.00 0.00 42 1014.9
20260504192009 83 343 0.9 3.5 0.00 0.00 0.00 42 1014.9
20260504191952 83 343 0.9 3.5 0.00 0.00 0.00 41 1014.9
20260504191632 83 328 0.9 3.5 0.00 0.00 0.00 42 1014.9
20260504191530 83 327 0.9 3.5 0.00 0.00 0.00 43 1014.9
20260504191431 83 355 0.9 3.5 0.00 0.00 0.00 43 1014.8
20260504191330 83 355 0.9 3.5 0.00 0.00 0.00 43 1014.9
20260504191128 83 272 0.9 2.6 0.00 0.00 0.00 43 1014.9
20260504191028 83 272 0.9 2.6 0.00 0.00 0.00 43 1014.9
20260504190931 83 33 0.9 2.6 0.00 0.00 0.00 43 1015.0
20260504190826 83 33 1.7 2.6 0.00 0.00 0.00 43 1015.0
20260504190620 83 48 1.7 2.6 0.00 0.00 0.00 42 1015.0
20260504190520 83 20 1.7 2.6 0.00 0.00 0.00 42 1015.0
20260504190422 82 20 1.7 2.6 0.00 0.00 0.00 43 1015.0
20260504190321 82 21 0.9 2.6 0.00 0.00 0.00 42 1015.0
20260504190112 82 45 0.9 2.6 0.00 0.00 0.00 44 1015.1
20260504190019 82 46 0.9 2.6 0.00 0.00 0.00 44 1015.0
20260504190002 82 72 0.9 2.6 0.00 0.00 0.00 43 1015.0
20260504185943 82 77 0.9 2.6 0.00 0.00 0.00 43 1015.1
20260504185923 82 5 0.9 2.6 0.00 0.00 0.00 43 1015.1
20260504185606 82 5 0.9 2.6 0.00 0.00 0.00 44 1015.1
20260504185514 82 5 1.7 4.3 0.00 0.00 0.00 44 1015.1
20260504185455 82 5 1.7 4.3 0.00 0.00 0.00 45 1015.0
20260504185438 82 5 1.7 4.3 0.00 0.00 0.00 45 1015.1
20260504185421 82 5 1.7 4.3 0.00 0.00 0.00 45 1015.1
20260504185100 82 5 1.7 4.3 0.00 0.00 0.00 44 1015.1
20260504185002 82 5 1.7 4.3 0.00 0.00 0.00 44 1015.1
20260504184900 82 5 1.7 4.3 0.00 0.00 0.00 44 1015.1
20260504184801 82 5 1.7 4.3 0.00 0.00 0.00 43 1015.2
20260504184600 82 5 1.7 4.3 0.00 0.00 0.00 43 1015.2
20260504184458 82 20 1.7 3.5 0.00 0.00 0.00 43 1015.3
20260504184356 82 5 1.7 3.5 0.00 0.00 0.00 44 1015.3
20260504184257 82 0 1.7 3.5 0.00 0.00 0.00 43 1015.2
20260504184055 82 57 1.7 3.5 0.00 0.00 0.00 43 1015.3
20260504183952 82 63 1.7 3.5 0.00 0.00 0.00 43 1015.3
20260504183852 82 29 1.7 3.5 0.00 0.00 0.00 43 1015.3
20260504183753 82 28 1.7 3.5 0.00 0.00 0.00 44 1015.4
20260504183549 82 36 1.7 3.5 0.00 0.00 0.00 44 1015.4
20260504183449 82 15 1.7 3.5 0.00 0.00 0.00 43 1015.4
20260504183348 82 14 1.7 3.5 0.00 0.00 0.00 44 1015.4
20260504183247 82 5 1.7 3.5 0.00 0.00 0.00 43 1015.5
20260504183040 82 5 1.7 4.3 0.00 0.00 0.00 44 1015.4
20260504182949 82 5 1.7 4.3 0.00 0.00 0.00 44 1015.5
20260504182932 82 5 1.7 4.3 0.00 0.00 0.00 43 1015.5
20260504182910 82 5 1.7 4.3 0.00 0.00 0.00 43 1015.5
20260504182850 82 33 1.7 4.3 0.00 0.00 0.00 43 1015.5
20260504182532 82 30 1.7 4.3 0.00 0.00 0.00 43 1015.5
20260504182431 82 64 1.7 4.3 0.00 0.00 0.00 43 1015.6
20260504182330 82 24 0.9 4.3 0.00 0.00 0.00 42 1015.6
20260504182231 82 24 0.9 4.3 0.00 0.00 0.00 42 1015.6
20260504182026 82 92 0.9 3.5 0.00 0.00 0.00 43 1015.6
20260504181924 82 92 0.9 3.5 0.00 0.00 0.00 43 1015.6
20260504181825 82 281 0.9 3.5 0.00 0.00 0.00 43 1015.6
20260504181727 82 281 0.9 3.5 0.00 0.00 0.00 42 1015.6
20260504181524 82 345 0.9 3.5 0.00 0.00 0.00 43 1015.6
20260504181423 82 323 0.9 2.6 0.00 0.00 0.00 42 1015.6
20260504181322 82 323 1.7 2.6 0.00 0.00 0.00 42 1015.6
20260504181220 82 323 1.7 5.2 0.00 0.00 0.00 42 1015.7
20260504181013 82 312 1.7 5.2 0.00 0.00 0.00 42 1015.7
20260504180913 82 312 1.7 5.2 0.00 0.00 0.00 40 1015.7
20260504180812 82 35 1.7 5.2 0.00 0.00 0.00 42 1015.8
20260504180715 82 67 1.7 5.2 0.00 0.00 0.00 42 1015.8
20260504180509 82 67 1.7 5.2 0.00 0.00 0.00 42 1015.9
20260504180410 82 57 1.7 5.2 0.00 0.00 0.00 41 1015.9
20260504180310 82 71 1.7 5.2 0.00 0.00 0.00 41 1015.9
20260504180211 82 76 1.7 3.5 0.00 0.00 0.00 42 1015.9
20260504180009 82 41 1.7 3.5 0.00 0.00 0.00 42 1016.0
20260504175907 82 40 1.7 3.5 0.00 0.00 0.00 42 1016.0
20260504175804 82 40 1.7 3.5 0.00 0.00 0.00 43 1016.1
20260504175702 81 30 1.7 3.5 0.00 0.00 0.00 42 1016.1
20260504175502 81 15 1.7 3.5 0.00 0.00 0.00 42 1016.2
20260504175358 81 355 1.7 3.5 0.00 0.00 0.00 41 1016.1
20260504175259 81 355 1.7 3.5 0.00 0.00 0.00 40 1016.1
20260504175159 81 26 1.7 3.5 0.00 0.00 0.00 42 1016.2
20260504174957 81 29 1.7 3.5 0.00 0.00 0.00 42 1016.2
20260504174853 81 348 1.7 3.5 0.00 0.00 0.00 43 1016.2
20260504174754 81 348 1.7 3.5 0.00 0.00 0.00 42 1016.2
20260504174653 81 346 1.7 3.5 0.00 0.00 0.00 42 1016.2
20260504174443 81 337 1.7 6.1 0.00 0.00 0.00 43 1016.1
20260504174343 81 66 1.7 6.1 0.00 0.00 0.00 42 1016.1
20260504174241 81 63 1.7 6.1 0.00 0.00 0.00 42 1016.1
20260504174142 81 75 1.7 6.1 0.00 0.00 0.00 43 1016.0
20260504174044 81 28 1.7 6.1 0.00 0.00 0.00 43 1016.1
20260504173936 81 26 1.7 6.1 0.00 0.00 0.00 43 1016.1
20260504173836 81 27 1.7 6.1 0.00 0.00 0.00 43 1016.1
20260504173736 81 74 1.7 6.1 0.00 0.00 0.00 44 1016.1
20260504173637 81 78 1.7 6.1 0.00 0.00 0.00 43 1016.1
20260504173538 81 66 1.7 5.2 0.00 0.00 0.00 43 1016.1
20260504173432 81 53 1.7 3.5 0.00 0.00 0.00 43 1016.2
20260504173332 81 34 1.7 3.5 0.00 0.00 0.00 43 1016.2
20260504173233 81 67 1.7 3.5 0.00 0.00 0.00 43 1016.2
20260504173135 81 102 1.7 4.3 0.00 0.00 0.00 43 1016.2
20260504173033 81 37 1.7 4.3 0.00 0.00 0.00 43 1016.3
20260504172930 81 37 1.7 4.3 0.00 0.00 0.00 43 1016.3
20260504172828 81 15 1.7 4.3 0.00 0.00 0.00 43 1016.3
20260504172730 81 15 1.7 4.3 0.00 0.00 0.00 43 1016.3
20260504172624 81 15 1.7 4.3 0.00 0.00 0.00 44 1016.3
20260504172523 81 9 1.7 4.3 0.00 0.00 0.00 45 1016.3
20260504172422 80 9 1.7 4.3 0.00 0.00 0.00 44 1016.3
20260504172323 80 306 1.7 4.3 0.00 0.00 0.00 44 1016.3
20260504172222 80 351 1.7 5.2 0.00 0.00 0.00 43 1016.3
20260504172119 80 32 1.7 5.2 0.00 0.00 0.00 44 1016.3
20260504172019 81 21 1.7 5.2 0.00 0.00 0.00 43 1016.3
20260504171916 81 21 1.7 5.2 0.00 0.00 0.00 43 1016.3
20260504171816 81 25 1.7 5.2 0.00 0.00 0.00 43 1016.3
20260504171719 81 48 1.7 5.2 0.00 0.00 0.00 44 1016.4
20260504171616 81 48 1.7 5.2 0.00 0.00 0.00 43 1016.4
20260504171515 81 48 1.7 5.2 0.00 0.00 0.00 43 1016.4
20260504171415 81 48 1.7 5.2 0.00 0.00 0.00 44 1016.4
20260504171312 81 82 1.7 5.2 0.00 0.00 0.00 43 1016.4
20260504171210 81 46 1.7 3.5 0.00 0.00 0.00 43 1016.4
20260504171112 81 57 1.7 3.5 0.00 0.00 0.00 44 1016.3
20260504171009 81 65 1.7 3.5 0.00 0.00 0.00 43 1016.4
20260504170908 81 13 1.7 3.5 0.00 0.00 0.00 43 1016.4
20260504170808 81 13 1.7 3.5 0.00 0.00 0.00 43 1016.4
20260504170707 81 19 1.7 3.5 0.00 0.00 0.00 43 1016.3
20260504170558 81 279 1.7 3.5 0.00 0.00 0.00 44 1016.4
20260504170501 81 266 1.7 3.5 0.00 0.00 0.00 42 1016.4
20260504170359 81 258 1.7 3.5 0.00 0.00 0.00 42 1016.4
20260504170258 81 5 1.7 3.5 0.00 0.00 0.00 42 1016.5
20260504170158 81 9 1.7 3.5 0.00 0.00 0.00 43 1016.5
20260504160347 79 355 1.7 6.1 0.00 0.00 0.00 44 1017.0
20260504160246 79 355 1.7 6.1 0.00 0.00 0.00 44 1017.0
20260504160148 79 340 1.7 6.1 0.00 0.00 0.00 44 1017.0
20260504151146 78 355 1.7 4.3 0.00 0.00 0.00 40 1017.2
20260504151046 78 5 1.7 3.5 0.00 0.00 0.00 40 1017.2
20260504150950 78 28 1.7 3.5 0.00 0.00 0.00 39 1017.2
20260504150840 78 28 1.7 3.5 0.00 0.00 0.00 39 1017.2
20260504150741 78 13 1.7 3.5 0.00 0.00 0.00 39 1017.3
20260504150641 78 26 1.7 3.5 0.00 0.00 0.00 39 1017.3
20260504150542 77 26 1.7 3.5 0.00 0.00 0.00 39 1017.2
20260504150442 77 26 1.7 3.5 0.00 0.00 0.00 39 1017.3
20260504150336 77 335 1.7 3.5 0.00 0.00 0.00 39 1017.3
20260504150235 77 28 1.7 3.5 0.00 0.00 0.00 39 1017.3
20260504150135 77 350 1.7 3.5 0.00 0.00 0.00 39 1017.3
20260504141235 76 49 1.7 3.5 0.00 0.00 0.00 26 1017.0
20260504141134 76 49 1.7 3.5 0.00 0.00 0.00 24 1017.0
20260504141034 76 27 1.7 3.5 0.00 0.00 0.00 23 1017.1
20260504140954 75 28 1.7 3.5 0.00 0.00 0.00 22 1017.0
20260504140937 75 28 1.7 3.5 0.00 0.00 0.00 24 1017.0
20260504140918 75 28 1.7 3.5 0.00 0.00 0.00 25 1017.0
20260504140630 75 28 1.7 3.5 0.00 0.00 0.00 25 1017.0
20260504140533 75 28 1.7 3.5 0.00 0.00 0.00 25 1017.0
20260504140431 75 0 1.7 3.5 0.00 0.00 0.00 25 1017.0
20260504140328 75 5 1.7 3.5 0.00 0.00 0.00 25 1017.0
20260504140226 75 26 1.7 3.5 0.00 0.00 0.00 22 1017.0
20260504140126 75 21 1.7 3.5 0.00 0.00 0.00 22 1017.0
20260504130736 71 15 1.7 4.3 0.00 0.00 0.00 5 1016.7
20260504130637 71 0 1.7 4.3 0.00 0.00 0.00 4 1016.6
20260504130536 71 319 1.7 4.3 0.00 0.00 0.00 5 1016.6
20260504130429 71 346 1.7 4.3 0.00 0.00 0.00 5 1016.6
20260504130328 71 44 1.7 7.0 0.00 0.00 0.00 4 1016.6
20260504130228 71 344 1.7 7.0 0.00 0.00 0.00 3 1016.5
20260504130128 71 25 1.7 7.0 0.00 0.00 0.00 1 1016.5
20260504120315 68 9 1.7 3.5 0.00 0.00 0.00 1 1016.3
20260504120214 68 24 1.7 3.5 0.00 0.00 0.00 1 1016.3
20260504120113 68 15 1.7 3.5 0.00 0.00 0.00 1 1016.3
20260504110602 0 0.0 0.0 0.00 0.00 0.00 1016.0
20260504110551 0 0.0 0.0 0.00 0.00 0.00 1016.1
20260504110237 0 0.0 0.0 0.00 0.00 0.00 1016.0
20260504110137 0 0.0 0.0 0.00 0.00 0.00 1016.0
20260504100436 0 0.0 0.0 0.00 0.00 0.00 1015.9
20260504100243 0 0.0 0.0 0.00 0.00 0.00 1015.9
20260504100123 0 0.0 0.0 0.00 0.00 0.00 1015.9
20260504081833 0 0.0 0.0 0.00 0.00 0.00 1016.0
20260504081638 0 0.0 0.0 0.00 0.00 0.00 1016.0
20260504081604 0 0.0 0.0 0.00 0.00 0.00 1015.9
20260504081553 0 0.0 0.0 0.00 0.00 0.00 1015.9
20260504081238 0 0.0 0.0 0.00 0.00 0.00 1015.8
20260504081136 0 0.0 0.0 0.00 0.00 0.00 1015.9
20260504080944 0 0.0 0.0 0.00 0.00 0.00 1015.8
20260504080736 0 0.0 0.0 0.00 0.00 0.00 1015.8
20260504080606 0 0.0 0.0 0.00 0.00 0.00 1015.8
20260504080557 0 0.0 0.0 0.00 0.00 0.00 1015.7
20260504080549 0 0.0 0.0 0.00 0.00 0.00 1015.8
20260504080140 0 0.0 0.0 0.00 0.00 0.00 1015.7
20260504070240 0 0.0 0.0 0.00 0.00 0.00 1016.3
20260504070139 0 0.0 0.0 0.00 0.00 0.00 1016.3
20260504060239 0 0.0 0.0 0.00 0.00 0.00 1016.5
20260504060144 0 0.0 0.0 0.00 0.00 0.00 1016.5
20260504050640 0 0.0 0.0 0.00 0.00 0.00 1016.9
20260504050539 0 0.0 0.0 0.00 0.00 0.00 1017.0
20260504050431 0 0.0 0.0 0.00 0.00 0.00 1017.0
20260504050139 0 0.0 0.0 0.00 0.00 0.00 1017.1
20260504045937 0 0.0 0.0 0.00 0.00 0.00 1017.0
20260504045839 0 0.0 0.0 0.00 0.00 0.00 1017.0
20260504045640 0 0.0 0.0 0.00 0.00 0.00 1016.9
20260504045539 0 0.0 0.0 0.00 0.00 0.00 1017.0
20260504045439 0 0.0 0.0 0.00 0.00 0.00 1016.9
20260504045339 0 0.0 0.0 0.00 0.00 0.00 1017.0
20260504045145 0 0.0 0.0 0.00 0.00 0.00 1016.9
20260504045039 0 0.0 0.0 0.00 0.00 0.00 1017.0
20260504044931 0 0.0 0.0 0.00 0.00 0.00 1017.0
20260504044636 0 0.0 0.0 0.00 0.00 0.00 1017.1
20260504044539 0 0.0 0.0 0.00 0.00 0.00 1017.1
20260504044439 0 0.0 0.0 0.00 0.00 0.00 1017.2
20260504044339 0 0.0 0.0 0.00 0.00 0.00 1017.1
20260504044037 0 0.0 0.0 0.00 0.00 0.00 1017.1
20260504043937 0 0.0 0.0 0.00 0.00 0.00 1017.1
20260504043833 0 0.0 0.0 0.00 0.00 0.00 1017.1
20260504043525 0 0.0 0.0 0.00 0.00 0.00 1017.1
20260504043331 0 0.0 0.0 0.00 0.00 0.00 1017.1
20260504043038 0 0.0 0.0 0.00 0.00 0.00 1017.0
20260504042933 0 0.0 0.0 0.00 0.00 0.00 1016.8
20260504042739 0 0.0 0.0 0.00 0.00 0.00 1016.8
20260504042441 0 0.0 0.0 0.00 0.00 0.00 1016.8
20260504042239 0 0.0 0.0 0.00 0.00 0.00 1016.9
20260504042141 0 0.0 0.0 0.00 0.00 0.00 1017.0
20260504042033 0 0.0 0.0 0.00 0.00 0.00 1017.1
20260504041841 0 0.0 0.0 0.00 0.00 0.00 1017.1
20260504041733 0 0.0 0.0 0.00 0.00 0.00 1017.2
20260504041425 0 0.0 0.0 0.00 0.00 0.00 1017.3
20260504041231 0 0.0 0.0 0.00 0.00 0.00 1017.3
20260504040933 0 0.0 0.0 0.00 0.00 0.00 1017.3
20260504040741 0 0.0 0.0 0.00 0.00 0.00 1017.3
20260504040638 0 0.0 0.0 0.00 0.00 0.00 1017.3
20260504040537 0 0.0 0.0 0.00 0.00 0.00 1017.4
20260504040437 0 0.0 0.0 0.00 0.00 0.00 1017.3
20260504040325 0 0.0 0.0 0.00 0.00 0.00 1017.4
20260504040210 0 0.0 0.0 0.00 0.00 0.00 1017.4
20260504040156 0 0.0 0.0 0.00 0.00 0.00 1017.4
20260504035840 0 0.0 0.0 0.00 0.00 0.00 1017.4
20260504035739 0 0.0 0.0 0.00 0.00 0.00 1017.4
20260504035628 0 0.0 0.0 0.00 0.00 0.00 1017.5
20260504035241 0 0.0 0.0 0.00 0.00 0.00 1017.5
20260504035130 0 0.0 0.0 0.00 0.00 0.00 1017.6
20260504034822 0 0.0 0.0 0.00 0.00 0.00 1017.6
20260504034628 0 0.0 0.0 0.00 0.00 0.00 1017.6
20260504034434 0 0.0 0.0 0.00 0.00 0.00 1017.6
20260504034239 0 0.0 0.0 0.00 0.00 0.00 1017.6
20260504034136 0 0.0 0.0 0.00 0.00 0.00 1017.5
20260504034100 0 0.0 0.0 0.00 0.00 0.00 1017.5
20260504034053 0 0.0 0.0 0.00 0.00 0.00 1017.5
20260504034046 0 0.0 0.0 0.00 0.00 0.00 1017.5
20260504033641 0 0.0 0.0 0.00 0.00 0.00 1017.5
20260504033538 0 0.0 0.0 0.00 0.00 0.00 1017.4
20260504033435 0 0.0 0.0 0.00 0.00 0.00 1017.5
20260504033144 0 0.0 0.0 0.00 0.00 0.00 1017.5
20260504033034 0 0.0 0.0 0.00 0.00 0.00 1017.5
20260504033000 0 0.0 0.0 0.00 0.00 0.00 1017.5
20260504032646 0 0.0 0.0 0.00 0.00 0.00 1017.4
20260504032534 0 0.0 0.0 0.00 0.00 0.00 1017.5
20260504032435 0 0.0 0.0 0.00 0.00 0.00 1017.5
20260504032141 0 0.0 0.0 0.00 0.00 0.00 1017.5
20260504032030 0 0.0 0.0 0.00 0.00 0.00 1017.4
20260504031837 0 0.0 0.0 0.00 0.00 0.00 1017.4
20260504031731 0 0.0 0.0 0.00 0.00 0.00 1017.4
20260504031541 0 0.0 0.0 0.00 0.00 0.00 1017.4
20260504031428 0 0.0 0.0 0.00 0.00 0.00 1017.4
20260504031038 0 0.0 0.0 0.00 0.00 0.00 1017.4
20260504030932 0 0.0 0.0 0.00 0.00 0.00 1017.4
20260504030859 0 0.0 0.0 0.00 0.00 0.00 1017.4
20260504030634 0 0.0 0.0 0.00 0.00 0.00 1017.3
20260504030529 0 0.0 0.0 0.00 0.00 0.00 1017.3
20260504030334 0 0.0 0.0 0.00 0.00 0.00 1017.3
20260504030039 0 0.0 0.0 0.00 0.00 0.00 1017.4
20260504025941 0 0.0 0.0 0.00 0.00 0.00 1017.3
20260504025839 0 0.0 0.0 0.00 0.00 0.00 1017.3
20260504025734 0 0.0 0.0 0.00 0.00 0.00 1017.3
20260504025538 0 0.0 0.0 0.00 0.00 0.00 1017.3
20260504025441 0 0.0 0.0 0.00 0.00 0.00 1017.2
20260504025339 0 0.0 0.0 0.00 0.00 0.00 1017.2
20260504025229 0 0.0 0.0 0.00 0.00 0.00 1017.2
20260504025034 0 0.0 0.0 0.00 0.00 0.00 1017.2
20260504024934 0 0.0 0.0 0.00 0.00 0.00 1017.2
20260504024740 0 0.0 0.0 0.00 0.00 0.00 1017.2
20260504024532 0 0.0 0.0 0.00 0.00 0.00 1017.2
20260504024433 0 0.0 0.0 0.00 0.00 0.00 1017.2
20260504024239 0 0.0 0.0 0.00 0.00 0.00 1017.2
20260504023938 0 0.0 0.0 0.00 0.00 0.00 1017.2
20260504023836 0 0.0 0.0 0.00 0.00 0.00 1017.3
20260504023737 0 0.0 0.0 0.00 0.00 0.00 1017.2
20260504023546 0 0.0 0.0 0.00 0.00 0.00 1017.1
20260504023440 0 0.0 0.0 0.00 0.00 0.00 1017.2
20260504023338 0 0.0 0.0 0.00 0.00 0.00 1017.2
20260504023234 0 0.0 0.0 0.00 0.00 0.00 1017.1
20260504023040 0 0.0 0.0 0.00 0.00 0.00 1017.0
20260504022931 0 0.0 0.0 0.00 0.00 0.00 1017.0
20260504022737 0 0.0 0.0 0.00 0.00 0.00 1017.0
20260504022635 0 0.0 0.0 0.00 0.00 0.00 1017.0
20260504022336 0 0.0 0.0 0.00 0.00 0.00 1017.0
20260504022232 0 0.0 0.0 0.00 0.00 0.00 1016.9
20260504022039 0 0.0 0.0 0.00 0.00 0.00 1016.9
20260504021831 0 0.0 0.0 0.00 0.00 0.00 1016.9
20260504021634 0 0.0 0.0 0.00 0.00 0.00 1016.9
20260504021537 0 0.0 0.0 0.00 0.00 0.00 1016.9
20260504021238 0 0.0 0.0 0.00 0.00 0.00 1016.9
20260504021136 0 0.0 0.0 0.00 0.00 0.00 1016.8
20260504021039 0 0.0 0.0 0.00 0.00 0.00 1016.8
20260504020738 0 0.0 0.0 0.00 0.00 0.00 1016.9
20260504020636 0 0.0 0.0 0.00 0.00 0.00 1016.9
20260504020441 0 0.0 0.0 0.00 0.00 0.00 1016.9
20260504020236 0 0.0 0.0 0.00 0.00 0.00 1016.7
20260504020135 0 0.0 0.0 0.00 0.00 0.00 1016.7
20260504015938 0 0.0 0.0 0.00 0.00 0.00 1016.7
20260504015737 0 0.0 0.0 0.00 0.00 0.00 1016.7
20260504015637 0 0.0 0.0 0.00 0.00 0.00 1016.6
20260504015534 0 0.0 0.0 0.00 0.00 0.00 1016.6
20260504015339 0 0.0 0.0 0.00 0.00 0.00 1016.6
20260504015138 0 0.0 0.0 0.00 0.00 0.00 1016.6
20260504014943 0 0.0 0.0 0.00 0.00 0.00 1016.6
20260504014841 0 0.0 0.0 0.00 0.00 0.00 1016.5
20260504014736 0 0.0 0.0 0.00 0.00 0.00 1016.6
20260504014540 0 0.0 0.0 0.00 0.00 0.00 1016.5
20260504014437 0 0.0 0.0 0.00 0.00 0.00 1016.6
20260504014240 0 0.0 0.0 0.00 0.00 0.00 1016.6
20260504013945 0 0.0 0.0 0.00 0.00 0.00 1016.5
20260504013835 0 0.0 0.0 0.00 0.00 0.00 1016.4
20260504013641 0 0.0 0.0 0.00 0.00 0.00 1016.4
20260504013537 0 0.0 0.0 0.00 0.00 0.00 1016.3
20260504013437 0 0.0 0.0 0.00 0.00 0.00 1016.3
20260504013333 0 0.0 0.0 0.00 0.00 0.00 1016.3
20260504013235 0 0.0 0.0 0.00 0.00 0.00 1016.3
20260504012939 0 0.0 0.0 0.00 0.00 0.00 1016.2
20260504012833 0 0.0 0.0 0.00 0.00 0.00 1016.1
20260504012756 0 0.0 0.0 0.00 0.00 0.00 1016.1
20260504012749 0 0.0 0.0 0.00 0.00 0.00 1016.0
20260504012337 0 0.0 0.0 0.00 0.00 0.00 1016.0
20260504012304 0 0.0 0.0 0.00 0.00 0.00 1016.0
20260504012255 0 0.0 0.0 0.00 0.00 0.00 1016.0
20260504011938 0 0.0 0.0 0.00 0.00 0.00 1016.0
20260504011833 0 0.0 0.0 0.00 0.00 0.00 1016.1
20260504011723 0 0.0 0.0 0.00 0.00 0.00 1016.1
20260504011333 0 0.0 0.0 0.00 0.00 0.00 1016.1
20260504011139 0 0.0 0.0 0.00 0.00 0.00 1016.1
20260504011039 0 0.0 0.0 0.00 0.00 0.00 1016.0
20260504010741 0 0.0 0.0 0.00 0.00 0.00 1016.0
20260504010637 0 0.0 0.0 0.00 0.00 0.00 1015.9
20260504010537 0 0.0 0.0 0.00 0.00 0.00 1015.9
20260504010240 0 0.0 0.0 0.00 0.00 0.00 1015.9
20260504010139 0 0.0 0.0 0.00 0.00 0.00 1016.0
20260504005943 0 0.0 0.0 0.00 0.00 0.00 1015.9
20260504005837 0 0.0 0.0 0.00 0.00 0.00 1015.9
20260504005735 0 0.0 0.0 0.00 0.00 0.00 1015.9
20260504005634 0 0.0 0.0 0.00 0.00 0.00 1015.9
20260504005441 0 0.0 0.0 0.00 0.00 0.00 1015.9
20260504005237 0 0.0 0.0 0.00 0.00 0.00 1015.9
20260504005129 0 0.0 0.0 0.00 0.00 0.00 1015.8
20260504004934 0 0.0 0.0 0.00 0.00 0.00 1015.8
20260504004739 0 0.0 0.0 0.00 0.00 0.00 1015.8
20260504004631 0 0.0 0.0 0.00 0.00 0.00 1015.8
20260504004437 0 0.0 0.0 0.00 0.00 0.00 1015.8
20260504004139 0 0.0 0.0 0.00 0.00 0.00 1015.8
20260504004038 0 0.0 0.0 0.00 0.00 0.00 1015.7
20260504003935 0 0.0 0.0 0.00 0.00 0.00 1015.7
20260504003631 0 0.0 0.0 0.00 0.00 0.00 1015.6
20260504003437 0 0.0 0.0 0.00 0.00 0.00 1015.6
20260504003337 0 0.0 0.0 0.00 0.00 0.00 1015.7
20260504003143 0 0.0 0.0 0.00 0.00 0.00 1015.7
20260504003039 0 0.0 0.0 0.00 0.00 0.00 1015.7
20260504002936 0 0.0 0.0 0.00 0.00 0.00 1015.7
20260504002835 0 0.0 0.0 0.00 0.00 0.00 1015.7
20260504002638 0 0.0 0.0 0.00 0.00 0.00 1015.7
20260504002536 0 0.0 0.0 0.00 0.00 0.00 1015.6
20260504002431 0 0.0 0.0 0.00 0.00 0.00 1015.7
20260504002133 0 0.0 0.0 0.00 0.00 0.00 1015.7
20260504001934 0 0.0 0.0 0.00 0.00 0.00 1015.7
20260504001857 74 0.0 0.0 0.00 0.00 0.00 3 1015.7
20260504001635 74 0.0 0.0 0.00 0.00 0.00 3 1015.6
20260504001444 74 0.0 0.0 0.00 0.00 0.00 3 1015.5
20260504001336 74 325 1.7 2.6 0.00 0.00 0.00 3 1015.5
20260504001233 74 325 1.7 4.3 0.00 0.00 0.00 3 1015.5
20260504001038 74 325 1.7 4.3 0.00 0.00 0.00 3 1015.5
20260504000846 74 325 1.7 4.3 0.00 0.00 0.00 3 1015.4
20260504000746 74 325 1.7 4.3 0.00 0.00 0.00 3 1015.4
20260504000647 74 325 1.7 4.3 0.00 0.00 0.00 3 1015.4
20260504000446 74 325 1.7 4.3 0.00 0.00 0.00 3 1015.4
20260504000330 74 325 1.7 4.3 0.00 0.00 0.00 3 1015.3
20260504000226 74 325 1.7 5.2 0.00 0.00 0.00 3 1015.3
20260504000127 74 325 1.7 5.2 0.00 0.00 0.00 3 1015.3
20260503235921 74 304 1.7 6.1 0.00 0.00 0.00 3 1015.3
20260503235836 74 288 1.7 6.1 0.00 0.00 0.00 6 1015.4
20260503235816 74 269 2.6 6.1 0.00 0.00 0.00 6 1015.4
20260503235757 75 274 2.6 6.1 0.00 0.00 0.00 7 1015.4
20260503235732 75 321 2.6 7.0 0.00 0.00 0.00 7 1015.4
20260503235415 75 317 2.6 8.7 0.00 0.00 0.00 8 1015.4
20260503235314 75 262 2.6 8.7 0.00 0.00 0.00 10 1015.4
20260503235214 75 325 2.6 8.7 0.00 0.00 0.00 12 1015.4
20260503235114 75 285 2.6 8.7 0.00 0.00 0.00 11 1015.4
20260503234910 75 261 2.6 8.7 0.00 0.00 0.00 11 1015.4
20260503234820 75 328 2.6 8.7 0.00 0.00 0.00 10 1015.4
20260503234800 75 315 2.6 8.7 0.00 0.00 0.00 9 1015.4
20260503234739 75 277 1.7 8.7 0.00 0.00 0.00 9 1015.4
20260503234723 75 188 1.7 8.7 0.00 0.00 0.00 10 1015.4
20260503234402 75 215 1.7 7.8 0.00 0.00 0.00 11 1015.4
20260503234303 75 322 1.7 7.0 0.00 0.00 0.00 11 1015.3
20260503234202 75 287 2.6 7.8 0.00 0.00 0.00 10 1015.4
20260503234105 76 317 1.7 7.8 0.00 0.00 0.00 7 1015.4
20260503233859 76 286 2.6 7.8 0.00 0.00 0.00 8 1015.4
20260503233759 76 275 2.6 7.8 0.00 0.00 0.00 10 1015.4
20260503233657 76 273 2.6 7.8 0.00 0.00 0.00 11 1015.4
20260503233557 76 274 2.6 7.8 0.00 0.00 0.00 12 1015.4
20260503233352 76 288 2.6 7.8 0.00 0.00 0.00 13 1015.4
20260503233259 76 248 1.7 7.8 0.00 0.00 0.00 15 1015.4
20260503233238 76 318 1.7 5.2 0.00 0.00 0.00 16 1015.4
20260503233221 76 301 1.7 7.0 0.00 0.00 0.00 13 1015.4
20260503233201 76 298 1.7 7.8 0.00 0.00 0.00 12 1015.4
20260503232846 76 336 1.7 7.8 0.00 0.00 0.00 13 1015.4
20260503232746 76 273 1.7 7.8 0.00 0.00 0.00 13 1015.4
20260503232649 76 246 1.7 7.8 0.00 0.00 0.00 15 1015.4
20260503232549 76 282 1.7 7.8 0.00 0.00 0.00 16 1015.4
20260503232338 76 252 2.6 8.7 0.00 0.00 0.00 15 1015.4
20260503232238 76 350 2.6 8.7 0.00 0.00 0.00 16 1015.5
20260503232139 76 322 2.6 8.7 0.00 0.00 0.00 17 1015.4
20260503232041 76 228 2.6 8.7 0.00 0.00 0.00 18 1015.4
20260503231834 76 355 2.6 8.7 0.00 0.00 0.00 18 1015.5
20260503231748 76 321 2.6 8.7 0.00 0.00 0.00 19 1015.5
20260503231729 76 323 2.6 8.7 0.00 0.00 0.00 19 1015.5
20260503231710 76 228 2.6 8.7 0.00 0.00 0.00 17 1015.5
20260503231650 76 283 1.7 7.0 0.00 0.00 0.00 15 1015.4
20260503231328 76 310 1.7 7.8 0.00 0.00 0.00 13 1015.5
20260503231238 76 256 1.7 7.8 0.00 0.00 0.00 14 1015.4
20260503231217 76 290 2.6 8.7 0.00 0.00 0.00 14 1015.4
20260503231200 76 279 2.6 8.7 0.00 0.00 0.00 14 1015.4
20260503231143 76 277 2.6 8.7 0.00 0.00 0.00 13 1015.4
20260503230823 76 196 2.6 8.7 0.00 0.00 0.00 14 1015.4
20260503230722 76 305 2.6 8.7 0.00 0.00 0.00 15 1015.4
20260503230624 76 202 2.6 8.7 0.00 0.00 0.00 15 1015.4
20260503230525 76 275 2.6 8.7 0.00 0.00 0.00 17 1015.3
20260503230316 76 327 2.6 8.7 0.00 0.00 0.00 14 1015.4
20260503230214 76 291 2.6 8.7 0.00 0.00 0.00 14 1015.3
20260503230115 76 296 2.6 6.1 0.00 0.00 0.00 13 1015.3
20260503230014 76 295 2.6 6.1 0.00 0.00 0.00 16 1015.3
20260503225917 76 280 1.7 6.1 0.00 0.00 0.00 16 1015.4
20260503225809 76 256 1.7 6.1 0.00 0.00 0.00 17 1015.3
20260503225733 76 262 1.7 6.1 0.00 0.00 0.00 17 1015.4
20260503225712 76 355 1.7 6.1 0.00 0.00 0.00 16 1015.4
20260503225647 76 278 1.7 6.1 0.00 0.00 0.00 16 1015.4
20260503225411 76 288 1.7 6.1 0.00 0.00 0.00 15 1015.4
20260503225304 76 307 1.7 6.1 0.00 0.00 0.00 16 1015.4
20260503225203 76 262 1.7 6.1 0.00 0.00 0.00 15 1015.4
20260503225103 76 295 1.7 6.1 0.00 0.00 0.00 16 1015.4
20260503225002 76 295 1.7 6.1 0.00 0.00 0.00 17 1015.4
20260503224902 76 292 1.7 6.1 0.00 0.00 0.00 15 1015.4
20260503224758 76 221 1.7 6.1 0.00 0.00 0.00 15 1015.3
20260503224700 76 227 1.7 6.1 0.00 0.00 0.00 17 1015.3
20260503224557 76 295 2.6 6.1 0.00 0.00 0.00 19 1015.3
20260503224456 76 290 2.6 7.8 0.00 0.00 0.00 20 1015.3
20260503224358 76 293 2.6 7.8 0.00 0.00 0.00 20 1015.3
20260503224252 77 327 2.6 7.8 0.00 0.00 0.00 20 1015.4
20260503224053 77 315 2.6 7.8 0.00 0.00 0.00 21 1015.4
20260503223953 77 314 2.6 7.8 0.00 0.00 0.00 22 1015.4
20260503223850 77 321 2.6 7.8 0.00 0.00 0.00 17 1015.4
20260503223746 77 232 2.6 7.8 0.00 0.00 0.00 20 1015.4
20260503223645 77 232 2.6 7.8 0.00 0.00 0.00 22 1015.4
20260503223544 77 338 2.6 7.8 0.00 0.00 0.00 22 1015.4
20260503223444 77 241 2.6 7.8 0.00 0.00 0.00 21 1015.4
20260503223346 77 196 2.6 7.8 0.00 0.00 0.00 18 1015.4
20260503223239 77 333 2.6 7.8 0.00 0.00 0.00 19 1015.3
20260503223139 76 319 2.6 7.8 0.00 0.00 0.00 20 1015.4
20260503223038 76 223 2.6 7.8 0.00 0.00 0.00 22 1015.4
20260503222939 76 302 2.6 7.8 0.00 0.00 0.00 24 1015.4
20260503222837 76 298 2.6 7.0 0.00 0.00 0.00 22 1015.4
20260503222734 76 291 2.6 7.0 0.00 0.00 0.00 21 1015.4
20260503222711 76 290 2.6 7.0 0.00 0.00 0.00 22 1015.4
20260503222652 76 261 2.6 7.0 0.00 0.00 0.00 22 1015.4
20260503222632 76 275 2.6 7.0 0.00 0.00 0.00 21 1015.4
20260503222335 76 313 2.6 7.0 0.00 0.00 0.00 21 1015.3
20260503222226 76 298 2.6 7.0 0.00 0.00 0.00 22 1015.4
20260503222126 76 311 2.6 7.0 0.00 0.00 0.00 22 1015.4
20260503222026 76 293 2.6 7.8 0.00 0.00 0.00 24 1015.4
20260503221927 76 256 2.6 7.8 0.00 0.00 0.00 25 1015.4
20260503221828 76 300 2.6 7.8 0.00 0.00 0.00 24 1015.4
20260503221723 76 317 2.6 7.8 0.00 0.00 0.00 24 1015.4
20260503221622 76 297 2.6 7.8 0.00 0.00 0.00 24 1015.5
20260503221525 77 295 2.6 7.8 0.00 0.00 0.00 22 1015.5
20260503221423 77 238 2.6 7.8 0.00 0.00 0.00 22 1015.5
20260503221323 77 270 2.6 7.8 0.00 0.00 0.00 23 1015.5
20260503221216 77 204 2.6 7.8 0.00 0.00 0.00 25 1015.5
20260503221115 77 281 2.6 7.8 0.00 0.00 0.00 23 1015.4
20260503221014 77 287 2.6 7.0 0.00 0.00 0.00 22 1015.4
20260503220916 77 325 2.6 7.0 0.00 0.00 0.00 22 1015.4
20260503220816 77 284 2.6 7.0 0.00 0.00 0.00 24 1015.3
20260503220710 77 284 2.6 7.0 0.00 0.00 0.00 25 1015.3
20260503220609 77 259 2.6 7.0 0.00 0.00 0.00 24 1015.3
20260503220508 77 220 2.6 7.0 0.00 0.00 0.00 23 1015.3
20260503220408 77 313 2.6 7.0 0.00 0.00 0.00 23 1015.3
20260503220309 77 292 2.6 7.0 0.00 0.00 0.00 23 1015.3
20260503220204 77 296 2.6 7.0 0.00 0.00 0.00 20 1015.3
20260503220103 77 253 2.6 7.0 0.00 0.00 0.00 19 1015.3
20260503220001 77 236 2.6 7.0 0.00 0.00 0.00 21 1015.3
20260503215901 77 232 2.6 7.0 0.00 0.00 0.00 23 1015.4
20260503215800 77 325 2.6 7.0 0.00 0.00 0.00 24 1015.4
20260503215656 77 311 2.6 7.0 0.00 0.00 0.00 24 1015.4
20260503215554 77 218 2.6 7.8 0.00 0.00 0.00 24 1015.4
20260503215454 77 283 2.6 7.8 0.00 0.00 0.00 24 1015.5
20260503215355 77 294 2.6 7.8 0.00 0.00 0.00 23 1015.5
20260503215254 77 275 2.6 7.8 0.00 0.00 0.00 25 1015.5
20260503215149 77 337 2.6 7.8 0.00 0.00 0.00 24 1015.5
20260503215048 77 348 2.6 7.8 0.00 0.00 0.00 22 1015.6
20260503214948 77 279 2.6 7.8 0.00 0.00 0.00 23 1015.6
20260503214851 77 355 2.6 8.7 0.00 0.00 0.00 25 1015.5
20260503214751 77 261 2.6 8.7 0.00 0.00 0.00 25 1015.6
20260503214706 77 245 2.6 8.7 0.00 0.00 0.00 27 1015.5
20260503214645 77 301 2.6 8.7 0.00 0.00 0.00 27 1015.5
20260503214628 77 330 2.6 8.7 0.00 0.00 0.00 28 1015.5
20260503214348 77 305 2.6 8.7 0.00 0.00 0.00 27 1015.4
20260503214243 77 240 2.6 8.7 0.00 0.00 0.00 27 1015.5
20260503214136 77 290 2.6 8.7 0.00 0.00 0.00 27 1015.4
20260503214034 77 276 2.6 8.7 0.00 0.00 0.00 27 1015.4
20260503213934 77 335 2.6 8.7 0.00 0.00 0.00 26 1015.4
20260503213835 77 231 2.6 7.8 0.00 0.00 0.00 28 1015.4
20260503213736 77 215 2.6 7.8 0.00 0.00 0.00 27 1015.5
20260503213632 77 250 2.6 7.8 0.00 0.00 0.00 23 1015.5
20260503213529 77 330 2.6 7.8 0.00 0.00 0.00 26 1015.4
20260503213429 77 267 2.6 7.8 0.00 0.00 0.00 27 1015.4
20260503213329 77 252 2.6 7.8 0.00 0.00 0.00 28 1015.4
20260503213230 77 273 2.6 7.8 0.00 0.00 0.00 28 1015.5
20260503213124 77 278 2.6 7.8 0.00 0.00 0.00 27 1015.5
20260503213023 77 258 2.6 7.8 0.00 0.00 0.00 26 1015.5
20260503212925 77 283 2.6 7.8 0.00 0.00 0.00 24 1015.5
20260503212824 77 303 2.6 7.8 0.00 0.00 0.00 24 1015.4
20260503212722 77 274 2.6 7.8 0.00 0.00 0.00 25 1015.5
20260503212617 77 349 2.6 7.8 0.00 0.00 0.00 27 1015.4
20260503212514 77 319 2.6 7.8 0.00 0.00 0.00 28 1015.4
20260503212415 77 328 2.6 7.8 0.00 0.00 0.00 28 1015.4
20260503212316 77 256 2.6 7.8 0.00 0.00 0.00 26 1015.4
20260503212214 77 275 2.6 7.8 0.00 0.00 0.00 27 1015.4
20260503212106 77 310 2.6 7.8 0.00 0.00 0.00 27 1015.4
20260503212008 77 213 2.6 7.8 0.00 0.00 0.00 27 1015.5
20260503211907 77 279 2.6 7.8 0.00 0.00 0.00 27 1015.5
20260503211806 77 252 1.7 7.8 0.00 0.00 0.00 27 1015.4
20260503211708 77 252 2.6 7.8 0.00 0.00 0.00 25 1015.4
20260503211640 77 299 2.6 7.8 0.00 0.00 0.00 26 1015.4
20260503211622 77 298 2.6 7.8 0.00 0.00 0.00 25 1015.5
20260503211605 77 260 2.6 7.8 0.00 0.00 0.00 26 1015.4
20260503211305 77 257 2.6 7.8 0.00 0.00 0.00 26 1015.5
20260503211202 77 246 2.6 6.1 0.00 0.00 0.00 25 1015.5
20260503211135 77 275 2.6 6.1 0.00 0.00 0.00 25 1015.5
20260503211118 77 313 2.6 6.1 0.00 0.00 0.00 24 1015.5
20260503211058 77 305 2.6 6.1 0.00 0.00 0.00 23 1015.5
20260503210756 77 227 2.6 6.1 0.00 0.00 0.00 24 1015.5
20260503210653 77 248 2.6 7.8 0.00 0.00 0.00 24 1015.5
20260503210549 77 304 2.6 8.7 0.00 0.00 0.00 23 1015.5
20260503210449 77 330 2.6 8.7 0.00 0.00 0.00 27 1015.5
20260503210348 77 264 2.6 8.7 0.00 0.00 0.00 28 1015.5
20260503210251 77 228 2.6 8.7 0.00 0.00 0.00 28 1015.5
20260503210150 77 277 2.6 8.7 0.00 0.00 0.00 29 1015.5
20260503210042 77 289 2.6 8.7 0.00 0.00 0.00 27 1015.4
20260503205942 77 343 2.6 8.7 0.00 0.00 0.00 25 1015.5
20260503205842 77 309 2.6 8.7 0.00 0.00 0.00 26 1015.5
20260503205742 77 240 2.6 8.7 0.00 0.00 0.00 24 1015.5
20260503205641 77 275 2.6 7.8 0.00 0.00 0.00 23 1015.5
20260503205536 77 317 2.6 7.8 0.00 0.00 0.00 25 1015.6
20260503205436 77 279 2.6 7.8 0.00 0.00 0.00 27 1015.6
20260503205337 77 266 2.6 7.8 0.00 0.00 0.00 28 1015.5
20260503205239 77 281 2.6 7.8 0.00 0.00 0.00 26 1015.5
20260503205140 77 286 2.6 7.8 0.00 0.00 0.00 26 1015.5
20260503205033 77 250 2.6 7.8 0.00 0.00 0.00 28 1015.5
20260503204932 78 228 2.6 7.8 0.00 0.00 0.00 29 1015.5
20260503204835 78 292 1.7 7.8 0.00 0.00 0.00 27 1015.5
20260503204732 78 267 1.7 7.8 0.00 0.00 0.00 27 1015.6
20260503204632 78 282 1.7 7.8 0.00 0.00 0.00 26 1015.6
20260503204601 78 250 1.7 4.3 0.00 0.00 0.00 26 1015.6
20260503204542 78 259 1.7 7.0 0.00 0.00 0.00 24 1015.6
20260503204525 78 277 2.6 7.0 0.00 0.00 0.00 28 1015.6
20260503204229 78 273 2.6 7.0 0.00 0.00 0.00 25 1015.5
20260503204128 78 252 2.6 7.0 0.00 0.00 0.00 26 1015.5
20260503204028 78 213 2.6 7.0 0.00 0.00 0.00 24 1015.5
20260503203928 77 268 2.6 7.0 0.00 0.00 0.00 23 1015.5
20260503203825 77 309 2.6 7.8 0.00 0.00 0.00 22 1015.6
20260503203719 77 314 2.6 7.8 0.00 0.00 0.00 26 1015.5
20260503203621 77 250 2.6 7.8 0.00 0.00 0.00 27 1015.5
20260503203514 77 296 2.6 7.8 0.00 0.00 0.00 27 1015.5
20260503203415 77 298 2.6 7.8 0.00 0.00 0.00 27 1015.5
20260503203315 77 268 2.6 7.8 0.00 0.00 0.00 27 1015.5
20260503203213 77 224 2.6 7.8 0.00 0.00 0.00 27 1015.5
20260503203115 77 314 2.6 7.8 0.00 0.00 0.00 29 1015.5
20260503203011 77 350 2.6 7.8 0.00 0.00 0.00 27 1015.6
20260503202911 77 313 2.6 7.8 0.00 0.00 0.00 26 1015.6